カタログに戻る

ATLAS 5 CENTAUR DEB

運用中HEO
NORAD 44642·DEBRIS·🇺🇸 United States

打ち上げ Oct 17, 2018 から Cape Canaveral Space Force Station

Loading…

次のパス (今後24時間)

TLE

最新Source: Space-Track

元期: Sep 14, 2026, 11:55 UTC

1 44642U 18079C   26257.49675796 -.00000172  00000-0  00000-0 0  9991
2 44642  13.3538  19.6239 4641110 349.7452   3.2693  1.84469704 53291

AllMySatでATLAS 5 CENTAUR DEBをリアルタイム追跡

Download on the App Store